Theta_e
360 358 356 352 330 324 310 315 322 322 327 327 329 324 328 327 322 312 345 350 352 354 359 361 367 366 362 364 363 361 360 360 360 360 361 361 362 360 360 360 361 358 358 362 360 360 361 361 361
359 358 355 345 325 308 312 320 318 323 329 329 326 328 323 320 331 338 341 351 354 355 357 360 366 367 364 364 365 364 364 362 362 363 362 361 361 361 360 362 362 361 358 361 363 361 360 361 361
361 362 343 336 314 309 312 319 321 325 334 333 326 328 324 325 334 338 346 349 352 352 356 360 367 367 365 364 364 364 364 363 363 362 361 360 360 360 361 361 361 361 360 359 360 362 360 360 361
340 345 342 323 311 319 319 322 325 325 330 327 325 320 327 335 338 342 344 345 347 349 356 364 367 365 366 366 365 363 362 362 362 361 362 362 361 362 362 361 361 361 360 359 358 358 359 361 360
348 342 321 314 316 321 323 324 326 328 329 326 326 322 325 335 342 343 343 349 346 350 357 360 367 367 366 364 364 364 363 362 363 362 361 362 362 362 361 361 361 360 360 360 360 359 359 358 359
338 339 320 309 316 324 326 327 327 329 328 327 328 324 324 336 337 340 349 349 354 355 357 358 366 368 368 365 366 363 362 363 361 364 362 362 361 361 361 360 361 359 359 360 359 359 357 358 357
331 320 316 315 318 320 324 329 326 328 328 328 333 320 323 331 335 341 349 350 352 355 355 358 359 360 364 366 364 362 361 363 363 362 361 362 361 359 359 359 358 359 360 360 358 360 358 357 357
334 321 318 317 317 319 327 328 329 327 328 337 335 322 319 330 336 342 347 346 348 350 353 353 353 355 357 357 364 361 365 365 363 360 362 361 359 359 357 361 359 354 355 359 359 360 357 356 356
329 315 312 316 320 323 331 327 330 334 331 333 335 330 329 333 335 334 339 342 346 350 352 352 354 350 347 354 360 364 364 362 359 360 363 362 355 355 355 357 358 357 357 357 358 359 359 359 358
319 314 316 322 326 325 329 330 329 330 331 330 330 332 332 333 332 331 334 337 339 343 349 352 354 350 345 358 357 352 353 354 355 355 356 355 350 350 358 358 361 358 357 357 357 358 358 357 351
321 317 321 324 329 329 328 329 333 328 325 328 327 329 332 333 333 333 332 338 338 341 345 349 349 348 346 349 352 351 351 354 356 356 353 353 354 352 350 349 353 351 357 350 353 354 352 351 351
319 324 326 327 332 328 327 330 327 328 330 334 333 333 333 332 332 335 334 333 339 340 342 346 346 346 349 350 351 352 351 352 351 357 354 350 348 352 347 349 350 349 349 348 350 349 350 346 347
321 323 326 329 330 326 331 325 324 330 335 336 335 334 332 332 332 334 337 339 337 337 339 343 347 347 350 348 350 350 348 347 349 354 356 351 350 348 351 348 347 351 352 352 349 347 346 344 345
324 323 324 327 325 326 328 321 325 328 336 334 333 331 332 332 333 332 337 337 337 339 342 346 348 350 350 347 349 350 350 351 353 353 351 355 350 350 349 348 348 352 352 353 351 350 349 346 348
324 316 320 324 326 326 330 323 325 331 334 332 331 331 332 331 333 332 336 337 338 338 341 346 348 349 349 347 348 346 350 348 350 351 354 354 352 352 350 349 348 349 351 349 350 348 350 350 349
319 316 311 322 324 328 324 312 324 328 326 330 330 331 330 331 331 332 336 338 338 338 338 343 351 349 351 348 348 347 348 347 353 354 352 353 350 352 348 351 349 349 348 351 348 349 348 347 348
313 309 313 317 324 324 321 314 323 325 326 329 330 330 329 329 329 331 335 335 337 337 340 338 340 348 349 349 351 349 352 349 351 354 352 351 348 348 348 351 350 350 351 349 349 348 347 345 344
310 311 314 313 319 322 318 315 324 326 327 327 329 329 329 328 328 332 336 338 339 342 340 339 339 346 347 353 350 351 350 353 354 353 350 354 350 351 347 351 349 350 348 348 350 346 346 347 345
314 313 314 317 321 319 316 317 321 325 328 330 330 329 328 327 330 333 337 341 346 343 339 338 337 347 348 348 344 345 347 348 350 349 340 349 349 352 352 352 348 350 343 346 343 343 338 341 344
311 312 313 318 320 316 315 316 324 326 323 328 327 326 330 328 330 333 335 341 344 345 344 343 342 349 350 348 347 347 348 352 354 344 346 354 353 354 352 350 349 342 342 341 341 341 338 339 342
308 305 309 313 318 318 314 311 321 324 326 328 328 332 334 331 330 332 334 339 343 344 348 344 345 350 350 351 352 353 356 357 350 348 349 353 354 355 353 352 341 342 342 341 340 337 334 332 333
300 312 313 313 310 305 315 299 312 316 318 321 325 327 330 333 334 335 335 338 341 344 349 346 345 354 350 351 350 349 345 344 347 349 350 355 355 354 355 344 344 342 342 337 340 338 336 333 330
305 311 310 310 304 301 307 303 308 315 315 319 324 327 327 330 334 335 336 339 341 344 348 348 348 354 351 351 354 352 349 349 351 351 350 353 354 355 348 345 342 345 343 339 340 338 336 336 331
311 306 305 304 300 295 302 301 305 310 315 321 322 329 327 332 330 335 338 339 341 345 348 349 350 354 354 353 355 352 349 347 349 350 348 349 351 344 344 345 346 343 340 342 340 342 337 337 336
303 299 291 291 292 294 301 300 307 317 320 321 320 323 325 324 329 332 335 337 338 345 348 351 349 353 356 354 355 352 351 348 346 347 346 349 348 341 343 346 347 342 342 341 342 341 338 337 335
299 296 292 289 291 295 303 302 309 320 323 325 326 325 329 328 328 331 333 337 338 341 347 353 351 351 354 356 355 355 356 351 350 341 333 343 345 343 346 345 346 343 342 343 342 342 338 336 331
298 294 301 294 293 292 299 307 315 317 319 321 323 325 325 331 333 335 335 337 339 342 345 353 354 354 354 356 357 357 357 353 351 340 331 339 346 348 345 344 344 343 344 344 343 338 336 332 330
301 301 293 294 289 288 294 300 302 312 314 318 320 322 327 331 333 334 337 336 338 342 348 354 356 356 356 355 357 358 356 356 354 344 334 346 347 345 345 346 344 346 345 343 340 337 333 331 328
298 295 296 295 296 290 290 299 311 313 316 315 320 323 324 328 329 333 331 338 339 344 350 353 354 355 355 355 357 357 359 355 354 351 347 350 347 346 347 346 345 343 341 337 333 332 330 324 321
303 299 297 292 292 294 294 302 314 315 317 317 317 323 323 323 325 328 328 339 341 344 349 353 355 355 355 355 356 357 357 353 354 349 350 350 350 349 348 347 343 340 337 332 330 328 324 320 321
Wind_Speed
8 7 3 2 2 4 1 4 6 11 18 15 15 12 6 6 6 6 17 21 21 15 12 14 16 17 17 15 14 14 14 14 13 12 12 12 12 11 11 10 10 10 8 9 10 12 11 12 11
5 9 4 4 2 6 7 13 8 13 19 19 17 8 20 19 18 22 16 21 21 16 11 12 16 16 17 15 14 13 13 13 12 11 12 11 11 11 9 10 11 11 10 9 11 12 11 11 11
14 17 1 2 2 5 5 9 4 8 21 18 9 6 6 19 13 9 22 23 19 15 12 12 15 16 17 16 15 14 13 12 12 11 10 10 9 10 10 10 10 10 9 9 9 10 10 10 9
12 8 3 1 7 15 17 11 7 4 25 26 22 13 10 16 15 19 23 22 18 16 12 14 16 16 16 17 16 15 13 11 10 10 10 10 9 10 10 10 9 10 8 9 9 9 9 10 7
5 3 4 2 19 12 16 13 5 22 19 21 20 15 16 17 23 24 23 22 20 16 12 12 15 14 15 15 15 15 13 10 9 9 9 8 9 9 9 10 9 9 8 7 8 7 8 9 7
3 3 3 2 13 17 6 11 3 20 20 20 18 18 9 16 16 18 23 21 19 17 14 11 14 15 14 14 15 14 11 10 9 10 9 8 8 8 8 8 8 7 7 7 6 6 6 7 6
8 3 5 10 8 13 9 13 10 18 21 15 15 18 8 9 10 18 23 21 20 17 13 9 9 12 14 13 12 12 12 9 9 9 8 8 7 6 5 6 6 6 7 7 6 6 6 5 4
9 4 4 6 6 7 16 14 12 9 19 20 23 9 13 12 10 20 22 21 20 17 14 11 8 6 6 6 12 12 11 11 9 8 8 7 7 6 5 4 4 5 5 6 6 7 6 6 6
4 5 3 4 7 6 14 11 11 6 14 8 8 19 17 15 10 11 21 19 16 14 14 13 11 9 7 6 9 12 13 12 11 9 8 6 2 4 6 8 10 8 8 8 8 8 8 8 8
2 5 7 8 12 8 9 12 11 7 6 17 18 19 18 15 8 14 19 17 15 16 17 14 14 12 10 9 6 5 7 5 5 5 5 4 4 4 6 9 12 11 10 9 8 8 9 8 4
4 6 9 7 5 8 9 9 12 14 8 20 23 21 18 11 10 16 15 19 19 18 14 16 14 14 11 7 6 4 4 4 4 7 6 6 4 2 3 3 3 2 7 3 6 5 3 4 4
3 5 10 6 3 8 6 11 9 6 13 21 21 19 15 9 8 16 16 9 19 15 13 15 14 14 11 9 7 7 5 4 4 6 7 3 2 4 3 2 3 4 3 5 4 3 4 5 4
3 4 12 8 4 8 21 15 6 10 14 18 21 18 13 11 8 12 15 14 12 9 13 13 10 12 11 7 5 6 7 4 5 6 7 6 4 4 4 3 1 3 4 4 3 4 4 5 5
4 4 10 11 6 7 14 8 9 6 15 15 17 15 13 11 10 7 15 14 10 9 9 15 12 12 9 7 4 2 3 7 6 6 5 6 1 4 3 2 3 5 4 2 3 5 5 5 4
2 3 4 9 5 8 21 6 1 2 1 13 12 12 14 10 10 9 15 16 14 7 11 11 9 8 7 6 4 1 2 2 4 4 7 5 4 2 5 3 4 2 0 3 4 3 3 4 5
14 5 5 4 4 5 8 4 10 9 3 9 12 11 12 9 10 8 13 15 14 10 9 11 12 10 8 6 4 2 3 3 4 5 5 5 4 3 3 3 2 3 1 2 4 2 2 2 4
9 5 9 16 22 11 6 5 12 5 3 8 11 10 11 8 8 7 11 11 14 9 10 9 9 11 9 7 5 4 3 2 4 8 4 4 4 2 4 1 4 3 3 4 2 2 3 2 4
2 6 6 9 19 17 4 6 8 9 7 8 10 8 9 9 9 9 10 12 11 11 9 9 7 9 9 6 5 3 2 1 5 7 6 2 5 5 4 3 3 2 1 1 2 3 2 5 5
13 12 9 12 21 16 12 9 11 11 7 1 2 9 7 9 9 10 9 13 11 11 8 8 8 10 7 4 4 2 3 2 4 3 5 5 6 9 7 2 1 2 2 1 1 1 2 3 3
12 12 17 8 13 6 5 10 15 10 7 10 8 5 8 10 10 12 9 14 14 12 9 8 8 13 8 7 4 4 3 2 4 4 3 6 3 4 3 3 2 4 3 5 6 5 3 3 4
12 7 8 21 13 1 3 8 9 2 7 4 15 8 10 15 17 17 13 17 15 14 11 10 8 10 9 9 5 3 3 3 3 2 3 4 5 6 4 4 5 6 5 4 3 4 6 3 4
8 13 14 6 5 3 9 5 3 4 4 4 10 9 22 17 15 19 18 18 17 15 14 13 11 8 8 8 5 5 5 4 3 3 3 5 6 4 4 6 7 5 3 5 4 3 3 4 4
8 8 7 7 8 5 8 3 2 3 5 7 11 12 15 11 13 20 22 19 22 18 16 14 14 11 8 7 6 5 4 3 2 5 6 4 4 6 7 7 6 5 4 3 5 4 5 2 2
5 7 11 7 3 6 8 2 4 7 10 4 8 13 15 12 7 11 22 20 18 19 17 15 14 13 10 9 8 6 7 6 4 2 4 3 3 4 6 7 6 6 5 3 2 2 3 3 3
5 2 4 6 4 10 10 4 6 9 9 15 15 15 19 6 8 7 18 19 15 21 20 16 16 12 11 11 8 8 6 9 9 9 4 6 4 2 5 5 6 4 4 3 3 4 3 4 4
7 8 7 7 5 8 5 8 8 18 11 15 17 11 11 9 9 11 12 20 16 20 20 19 17 14 12 12 9 8 8 5 9 7 5 4 5 5 6 6 6 6 5 5 3 4 3 5 4
7 5 11 3 6 4 2 3 5 7 14 8 10 8 18 4 20 11 11 21 16 17 19 18 17 14 14 9 9 8 7 8 6 8 5 5 5 6 6 7 6 5 5 6 7 4 4 5 6
4 6 5 5 2 7 6 2 4 8 9 5 11 17 9 15 21 26 15 23 18 18 16 17 17 16 14 12 8 7 8 7 8 6 7 6 8 7 7 6 6 6 6 7 6 4 5 7 4
2 5 3 3 4 2 3 5 7 8 4 7 10 8 12 21 22 18 5 18 21 18 18 16 14 14 12 10 8 7 7 7 6 7 8 9 9 7 8 7 7 6 7 6 7 6 7 7 7
8 8 8 7 10 4 4 5 4 5 4 2 11 15 9 12 16 10 9 16 18 17 16 16 14 14 12 10 7 7 5 6 7 7 9 10 8 8 7 7 7 7 6 7 7 7 6 7 7
Wind_Direction
174 178 200 233 94 106 307 68 85 64 63 73 66 25 81 41 116 140 129 125 128 130 136 134 130 128 125 122 125 121 114 110 112 112 112 109 108 103 106 115 114 104 107 106 107 111 113 110 105
210 210 247 284 323 85 63 48 53 90 110 82 61 350 73 74 94 112 114 127 122 132 137 138 131 130 127 130 129 119 115 119 120 120 117 119 112 109 118 109 110 106 107 100 108 112 113 113 112
23 311 91 261 274 102 111 59 335 349 115 99 90 203 73 114 113 105 123 125 132 130 127 136 134 136 135 137 129 126 119 123 126 126 130 122 118 120 112 112 115 114 112 111 103 111 119 118 119
85 314 316 319 66 71 96 19 338 321 100 105 120 91 104 112 108 127 136 134 123 120 125 134 136 136 136 134 134 128 130 130 128 132 124 122 132 130 122 122 117 113 121 117 122 118 116 114 125
58 170 341 252 98 112 102 126 294 84 94 96 106 106 108 110 126 137 136 124 123 121 131 136 135 141 139 138 138 137 135 136 139 147 138 133 123 132 132 127 128 126 127 129 128 128 126 129 136
124 108 16 63 59 117 132 124 281 100 102 107 104 112 115 129 133 148 126 123 123 130 134 140 139 141 141 139 137 136 139 141 140 142 152 137 132 150 146 136 140 139 140 143 145 142 142 142 153
310 105 264 93 93 77 105 181 133 129 132 140 123 121 147 134 156 124 126 129 132 129 132 134 138 149 149 144 144 142 147 146 152 147 148 147 158 156 156 153 147 149 166 157 163 164 169 178 192
175 176 188 68 78 88 82 70 84 82 134 128 135 151 154 158 171 132 134 135 132 138 139 144 150 149 142 157 149 155 155 160 162 163 158 167 171 174 174 177 189 176 181 177 188 188 200 204 222
134 49 110 131 104 92 96 98 118 118 134 161 153 137 143 156 162 133 135 129 132 140 146 154 156 165 167 167 175 170 169 171 176 178 186 189 190 211 213 195 211 195 204 213 197 203 215 226 238
134 104 68 68 111 116 116 132 113 96 109 111 124 126 140 163 166 143 130 143 146 152 158 164 164 171 169 167 171 184 182 177 181 183 187 179 212 235 218 226 203 204 204 212 220 222 225 241 225
351 133 101 62 51 93 96 91 155 148 141 127 135 142 154 173 174 150 148 156 155 165 166 168 171 169 168 157 170 195 194 186 190 188 180 189 184 200 232 250 214 209 234 214 231 227 230 231 237
305 120 118 107 15 77 69 91 82 51 136 137 139 144 161 171 185 152 154 150 153 165 175 163 168 149 162 166 179 196 196 191 186 186 162 165 200 210 276 176 274 197 210 223 204 212 221 247 259
330 30 107 127 216 117 70 73 33 87 113 128 138 149 166 169 195 148 161 141 151 143 168 156 136 156 163 160 197 201 189 183 175 159 168 162 185 180 211 265 337 261 198 217 210 226 226 242 252
177 283 153 159 130 110 99 105 115 310 117 132 144 156 168 178 186 180 155 149 145 145 164 147 142 150 157 155 148 165 176 168 171 159 165 162 147 185 242 238 261 243 200 264 225 239 219 218 232
349 247 227 95 149 108 120 92 166 251 312 139 152 166 172 188 189 173 149 152 154 163 144 148 144 135 130 130 115 307 143 159 168 162 96 116 174 169 242 198 217 209 230 276 247 265 249 220 227
300 246 31 196 211 178 95 241 213 130 101 148 167 183 176 194 186 169 154 151 159 161 160 155 153 152 145 150 169 220 283 56 122 112 131 154 198 92 308 327 197 310 272 131 216 230 251 241 217
4 67 73 320 328 294 114 227 258 108 217 181 176 185 177 184 170 165 146 148 159 152 153 164 145 158 157 167 168 201 271 222 110 105 95 324 351 333 259 247 200 186 224 155 163 232 217 235 245
194 50 23 350 289 259 148 217 247 217 187 190 174 180 171 169 172 161 142 142 145 147 152 162 151 160 166 153 152 180 227 222 97 121 104 256 306 278 262 177 239 183 223 196 191 228 264 236 236
267 140 173 204 229 249 188 192 218 211 203 157 164 167 176 177 167 160 155 149 133 145 152 159 151 155 149 143 147 153 210 145 99 128 149 151 212 258 222 76 158 82 84 119 325 309 314 322 352
273 174 205 109 242 201 275 206 208 187 156 170 145 32 214 181 164 167 160 156 155 156 163 168 164 157 162 156 165 170 162 164 148 139 205 211 263 132 116 100 96 68 60 43 39 41 357 320 356
271 256 254 179 218 255 109 309 143 99 231 228 95 56 307 211 172 173 174 163 162 165 168 177 175 166 168 164 163 168 94 93 104 131 214 206 138 128 136 105 78 52 75 75 72 37 43 16 327
273 280 293 293 144 201 165 239 92 221 194 2 72 173 195 221 180 169 177 165 173 179 176 181 178 172 175 162 164 164 157 161 186 153 148 149 137 144 93 91 78 65 94 77 75 54 47 65 22
243 323 320 324 322 346 300 113 268 154 52 252 193 239 200 198 196 176 178 175 179 179 180 182 183 170 170 171 159 173 161 166 102 133 148 160 152 145 129 101 88 105 101 88 84 56 53 54 70
266 330 327 322 335 342 253 165 227 176 202 213 265 272 203 196 178 207 180 183 176 180 179 180 178 178 168 170 166 174 174 120 151 94 155 159 157 135 119 118 117 119 105 101 68 87 68 49 46
322 321 318 336 332 242 265 44 225 217 194 198 195 248 263 161 190 232 187 178 180 174 182 177 178 174 171 174 162 180 184 142 156 194 155 164 151 157 142 128 130 130 135 126 93 62 79 49 55
247 192 168 234 246 262 349 148 221 202 202 204 197 197 284 289 314 256 184 174 181 173 170 171 175 177 172 170 170 173 180 160 168 152 172 159 153 152 163 143 141 145 133 111 80 90 90 60 56
277 295 226 240 291 6 177 106 15 244 254 230 218 290 230 179 174 274 171 166 172 172 167 162 171 172 174 168 164 173 171 168 155 181 145 154 142 147 160 142 146 143 108 81 87 89 74 69 59
187 247 8 343 227 273 288 138 215 192 196 154 80 72 308 139 150 194 206 167 171 164 159 162 167 166 168 167 165 174 171 181 160 158 154 149 140 150 144 126 129 115 93 79 89 79 59 67 49
269 270 268 164 149 177 297 268 217 218 245 104 121 162 173 157 183 195 94 178 167 157 155 160 161 159 157 164 166 164 174 172 144 153 155 154 149 152 123 120 108 103 94 83 77 81 75 71 57
190 211 184 125 289 244 154 293 204 170 168 148 181 181 205 179 200 209 162 189 157 153 151 156 158 159 162 163 156 158 155 146 159 146 146 148 139 118 119 101 105 101 95 86 87 82 86 85 80